This demonstration page uses our WeatherBlox Daily Observations layout. Learn more.

Left ArrowRight Arrow

39.12711, -84.51439

Hourly Observations for August 19, 2016

Temp ( °F °C ) Dew Point ( °F °C ) Humidity (%) Winds ( mph kmh ) Pressure ( in mb ) Visibility ( mi km ) Precip ( " mm )
12:53 am 00:53 Mostly Cloudy 72 22.2 72 22.2 100 100 S 5 7 30.03 1017 7 11 N/A
1:53 am 01:53 Clear 72 22.2 72 22.2 100 100 N N/A 30.02 1017 8 13 N/A
2:53 am 02:53 Mostly Clear 71 21.7 71 21.7 100 100 N N/A 30.02 1017 7 11 N/A
3:14 am 03:14 Mostly Cloudy 73 23 72 22 94 94 N N/A 30.00 1016 8 13 N/A
3:29 am 03:29 Partly Cloudy 72 22.2 72 22.2 100 100 S 3 6 30.00 1016 8 13 N/A
3:53 am 03:53 Partly Cloudy 73 22.8 72 22.2 96 96 S 5 7 30.02 1017 8 13 N/A
4:05 am 04:05 Mostly Cloudy 72 22.2 72 22.2 100 100 S 5 7 30.00 1016 7 11 N/A
4:37 am 04:37 Mostly Cloudy 72 22.2 72 22.2 100 100 S 6 9 30.00 1016 7 11 N/A
4:53 am 04:53 Mostly Clear with Mist and Fog 72 22.2 72 22.2 100 100 SSW 6 9 30.01 1016 6 10 N/A
5:34 am 05:34 Mostly Cloudy 73 22.8 73 22.8 100 100 SSW 5 7 30.00 1016 7 11 N/A
5:53 am 05:53 Cloudy with Mist and Fog 73 22.8 73 22.8 100 100 SSW 6 9 30.01 1016 6 10 N/A
6:53 am 06:53 Cloudy with Mist and Fog 73 22.8 73 22.8 100 100 SSW 3 6 30.01 1016 6 10 N/A
7:53 am 07:53 Cloudy with Mist and Fog 74 23.3 73 22.8 97 97 SSW 6 9 30.01 1016 4 6 N/A
8:53 am 08:53 Cloudy with Mist and Fog 74 23.3 73 22.8 97 97 S 6 9 30.00 1016 5 8 N/A
9:11 am 09:11 Cloudy with Mist and Fog 75 23.9 73 22.8 94 94 SSW 7 11 29.97 1015 4 6 N/A
9:53 am 09:53 Cloudy with Mist and Fog 76 24.4 73 22.8 91 91 S 6 9 29.99 1016 5 8 N/A
10:53 am 10:53 Mostly Cloudy with Haze 79 26.1 74 23.3 85 85 S 8 13 30.00 1016 6 10 N/A
11:01 am 11:01 Mostly Cloudy with Haze 78 25.6 72 22.2 82 82 VRB 3 6 29.97 1015 6 10 N/A
11:34 am 11:34 Partly Cloudy 81 27 72 22 74 74 SW 6 9 29.97 1015 7 11 N/A
11:53 am 11:53 Mostly Sunny 81 27.2 71 21.7 72 72 VRB 6 9 30.00 1016 7 11 N/A
12:53 pm 12:53 Mostly Cloudy 79 26.1 72 22.2 79 79 SSW 7 11 29.99 1016 7 11 N/A
1:53 pm 13:53 Mostly Cloudy 83 28.3 74 23.3 74 74 SSE 6 9 29.98 1015 7 11 N/A
2:53 pm 14:53 Partly Cloudy 81 27.2 71 21.7 72 72 S 6 9 29.96 1015 10 16 N/A
3:53 pm 15:53 Partly Cloudy 84 28.9 71 21.7 65 65 S 6 9 29.93 1014 8 13 N/A
4:53 pm 16:53 Sunny 84 28.9 71 21.7 65 65 SSW 7 11 29.91 1013 10 16 N/A
5:53 pm 17:53 Partly Cloudy 84 28.9 71 21.7 65 65 S 7 11 29.91 1013 10 16 N/A
6:53 pm 18:53 Partly Cloudy 83 28.3 72 22.2 70 70 SSW 7 11 29.91 1013 9 14 N/A
7:53 pm 19:53 Sunny 79 26.1 72 22.2 79 79 S 5 7 29.90 1012 9 14 N/A
8:18 pm 20:18 Partly Cloudy with Thunderstorms 77 25 73 23 89 89 N N/A 29.91 1013 10 16 N/A
8:36 pm 20:36 Partly Cloudy 75 24 73 23 94 94 N N/A 29.91 1013 10 16 N/A
8:53 pm 20:53 Partly Cloudy 76 24.4 72 22.2 88 88 ENE 5 7 29.89 1012 10 16 N/A
9:53 pm 21:53 Clear 73 22.8 72 22.2 96 96 S 3 6 29.89 1012 7 11 N/A
10:53 pm 22:53 Clear 74 23.3 72 22.2 94 94 N N/A 29.91 1013 7 11 N/A
11:53 pm 23:53 Clear with Mist and Fog 71 21.7 71 21.7 100 100 N N/A 29.91 1013 5 8 N/A

Powered by AerisWeather